#datetime,building,power
2023-06-22T00:00:00,75s,1.20
2023-06-22T00:01:00,75s,1.28
2023-06-22T00:02:00,75s,1.31
2023-06-22T00:03:00,75s,1.29
2023-06-22T00:04:00,75s,1.20
2023-06-22T00:05:00,75s,1.21
2023-06-22T00:06:00,75s,1.30
2023-06-22T00:07:00,75s,1.27
2023-06-22T00:08:00,75s,1.25
2023-06-22T00:09:00,75s,1.24
2023-06-22T00:10:00,75s,1.19
2023-06-22T00:11:00,75s,1.27
2023-06-22T00:12:00,75s,1.27
2023-06-22T00:13:00,75s,1.36
2023-06-22T00:14:00,75s,1.27
2023-06-22T00:15:00,75s,1.30
2023-06-22T00:16:00,75s,1.15
2023-06-22T00:17:00,75s,1.25
2023-06-22T00:18:00,75s,1.43
2023-06-22T00:19:00,75s,1.20
2023-06-22T00:20:00,75s,1.17
2023-06-22T00:21:00,75s,1.16
2023-06-22T00:22:00,75s,1.15
2023-06-22T00:23:00,75s,1.16
2023-06-22T00:24:00,75s,1.23
2023-06-22T00:25:00,75s,1.31
2023-06-22T00:26:00,75s,1.31
2023-06-22T00:27:00,75s,1.14
2023-06-22T00:28:00,75s,1.06
2023-06-22T00:29:00,75s,1.06
2023-06-22T00:30:00,75s,1.05
2023-06-22T00:31:00,75s,1.05
2023-06-22T00:32:00,75s,1.06
2023-06-22T00:33:00,75s,1.05
2023-06-22T00:34:00,75s,1.05
2023-06-22T00:35:00,75s,1.06
2023-06-22T00:36:00,75s,1.24
2023-06-22T00:37:00,75s,1.23
2023-06-22T00:38:00,75s,1.23
2023-06-22T00:39:00,75s,1.05
2023-06-22T00:40:00,75s,1.07
2023-06-22T00:41:00,75s,1.07
2023-06-22T00:42:00,75s,1.05
2023-06-22T00:43:00,75s,1.34
2023-06-22T00:44:00,75s,1.05
2023-06-22T00:45:00,75s,1.05
2023-06-22T00:46:00,75s,1.10
2023-06-22T00:47:00,75s,1.20
2023-06-22T00:48:00,75s,1.66
2023-06-22T00:49:00,75s,1.37
2023-06-22T00:50:00,75s,1.43
2023-06-22T00:51:00,75s,1.21
2023-06-22T00:52:00,75s,1.21
2023-06-22T00:53:00,75s,1.22
2023-06-22T00:54:00,75s,1.21
2023-06-22T00:55:00,75s,1.29
2023-06-22T00:56:00,75s,1.21
2023-06-22T00:57:00,75s,1.18
2023-06-22T00:58:00,75s,1.19
2023-06-22T00:59:00,75s,1.28
2023-06-22T01:00:00,75s,1.35
2023-06-22T01:01:00,75s,1.34
2023-06-22T01:02:00,75s,1.19
2023-06-22T01:03:00,75s,1.13
2023-06-22T01:04:00,75s,1.14
2023-06-22T01:05:00,75s,1.14
2023-06-22T01:06:00,75s,1.14
2023-06-22T01:07:00,75s,1.16
2023-06-22T01:08:00,75s,1.14
2023-06-22T01:09:00,75s,1.13
2023-06-22T01:10:00,75s,1.56
2023-06-22T01:11:00,75s,1.30
2023-06-22T01:12:00,75s,1.31
2023-06-22T01:13:00,75s,1.23
2023-06-22T01:14:00,75s,1.14
2023-06-22T01:15:00,75s,1.08
2023-06-22T01:16:00,75s,1.09
2023-06-22T01:17:00,75s,1.23
2023-06-22T01:18:00,75s,1.21
2023-06-22T01:19:00,75s,1.20
2023-06-22T01:20:00,75s,1.20
2023-06-22T01:21:00,75s,1.18
2023-06-22T01:22:00,75s,1.27
2023-06-22T01:23:00,75s,1.26
2023-06-22T01:24:00,75s,1.26
2023-06-22T01:25:00,75s,1.18
2023-06-22T01:26:00,75s,1.00
2023-06-22T01:27:00,75s,1.00
2023-06-22T01:28:00,75s,1.01
2023-06-22T01:29:00,75s,1.00
2023-06-22T01:30:00,75s,1.00
2023-06-22T01:31:00,75s,1.00
2023-06-22T01:32:00,75s,0.98
2023-06-22T01:33:00,75s,1.01
2023-06-22T01:34:00,75s,0.99
2023-06-22T01:35:00,75s,1.54
2023-06-22T01:36:00,75s,1.08
2023-06-22T01:37:00,75s,1.02
2023-06-22T01:38:00,75s,1.07
2023-06-22T01:39:00,75s,1.10
2023-06-22T01:40:00,75s,1.08
2023-06-22T01:41:00,75s,1.07
2023-06-22T01:42:00,75s,1.06
2023-06-22T01:43:00,75s,1.07
2023-06-22T01:44:00,75s,1.07
2023-06-22T01:45:00,75s,1.07
2023-06-22T01:46:00,75s,1.19
2023-06-22T01:47:00,75s,1.67
2023-06-22T01:48:00,75s,1.18
2023-06-22T01:49:00,75s,1.23
2023-06-22T01:50:00,75s,1.21
2023-06-22T01:51:00,75s,1.18
2023-06-22T01:52:00,75s,1.17
2023-06-22T01:53:00,75s,1.18
2023-06-22T01:54:00,75s,1.18
2023-06-22T01:55:00,75s,1.11
2023-06-22T01:56:00,75s,1.01
2023-06-22T01:57:00,75s,1.00
2023-06-22T01:58:00,75s,1.01
2023-06-22T01:59:00,75s,1.00
2023-06-22T02:00:00,75s,1.04
2023-06-22T02:01:00,75s,1.03
2023-06-22T02:02:00,75s,1.16
2023-06-22T02:03:00,75s,1.15
2023-06-22T02:04:00,75s,1.23
2023-06-22T02:05:00,75s,1.22
2023-06-22T02:06:00,75s,1.50
2023-06-22T02:07:00,75s,1.24
2023-06-22T02:08:00,75s,1.34
2023-06-22T02:09:00,75s,1.23
2023-06-22T02:10:00,75s,1.50
2023-06-22T02:11:00,75s,1.22
2023-06-22T02:12:00,75s,1.18
2023-06-22T02:13:00,75s,1.15
2023-06-22T02:14:00,75s,1.14
2023-06-22T02:15:00,75s,1.23
2023-06-22T02:16:00,75s,1.35
2023-06-22T02:17:00,75s,1.32
2023-06-22T02:18:00,75s,1.26
2023-06-22T02:19:00,75s,1.32
2023-06-22T02:20:00,75s,1.29
2023-06-22T02:21:00,75s,1.31
2023-06-22T02:22:00,75s,1.38
2023-06-22T02:23:00,75s,1.41
2023-06-22T02:24:00,75s,1.36
2023-06-22T02:25:00,75s,1.31
2023-06-22T02:26:00,75s,1.21
2023-06-22T02:27:00,75s,1.29
2023-06-22T02:28:00,75s,1.29
2023-06-22T02:29:00,75s,1.19
2023-06-22T02:30:00,75s,1.10
2023-06-22T02:31:00,75s,1.11
2023-06-22T02:32:00,75s,1.11
2023-06-22T02:33:00,75s,10.45
2023-06-22T02:34:00,75s,10.27
2023-06-22T02:35:00,75s,10.26
2023-06-22T02:36:00,75s,10.14
2023-06-22T02:37:00,75s,10.10
2023-06-22T02:38:00,75s,10.04
2023-06-22T02:39:00,75s,1.54
2023-06-22T02:40:00,75s,1.18
2023-06-22T02:41:00,75s,1.18
2023-06-22T02:42:00,75s,1.08
2023-06-22T02:43:00,75s,1.41
2023-06-22T02:44:00,75s,1.05
2023-06-22T02:45:00,75s,1.05
2023-06-22T02:46:00,75s,1.15
2023-06-22T02:47:00,75s,1.48
2023-06-22T02:48:00,75s,1.24
2023-06-22T02:49:00,75s,1.25
2023-06-22T02:50:00,75s,1.27
2023-06-22T02:51:00,75s,1.26
2023-06-22T02:52:00,75s,1.23
2023-06-22T02:53:00,75s,1.14
2023-06-22T02:54:00,75s,1.14
2023-06-22T02:55:00,75s,1.17
2023-06-22T02:56:00,75s,1.06
2023-06-22T02:57:00,75s,1.05
2023-06-22T02:58:00,75s,1.05
2023-06-22T02:59:00,75s,1.23
2023-06-22T03:00:00,75s,1.14
2023-06-22T03:01:00,75s,1.21
2023-06-22T03:02:00,75s,1.14
2023-06-22T03:03:00,75s,1.13
2023-06-22T03:04:00,75s,1.08
2023-06-22T03:05:00,75s,1.06
2023-06-22T03:06:00,75s,1.15
2023-06-22T03:07:00,75s,1.14
2023-06-22T03:08:00,75s,1.13
2023-06-22T03:09:00,75s,1.13
2023-06-22T03:10:00,75s,1.14
2023-06-22T03:11:00,75s,1.57
2023-06-22T03:12:00,75s,1.28
2023-06-22T03:13:00,75s,1.28
2023-06-22T03:14:00,75s,1.21
2023-06-22T03:15:00,75s,1.12
2023-06-22T03:16:00,75s,1.25
2023-06-22T03:17:00,75s,1.24
2023-06-22T03:18:00,75s,1.46
2023-06-22T03:19:00,75s,1.25
2023-06-22T03:20:00,75s,1.62
2023-06-22T03:21:00,75s,1.24
2023-06-22T03:22:00,75s,1.60
2023-06-22T03:23:00,75s,1.28
2023-06-22T03:24:00,75s,1.27
2023-06-22T03:25:00,75s,1.08
2023-06-22T03:26:00,75s,1.09
2023-06-22T03:27:00,75s,1.09
2023-06-22T03:28:00,75s,1.16
2023-06-22T03:29:00,75s,1.15
2023-06-22T03:30:00,75s,1.09
2023-06-22T03:31:00,75s,1.09
2023-06-22T03:32:00,75s,1.08
2023-06-22T03:33:00,75s,1.08
2023-06-22T03:34:00,75s,1.22
2023-06-22T03:35:00,75s,1.16
2023-06-22T03:36:00,75s,1.15
2023-06-22T03:37:00,75s,1.05
2023-06-22T03:38:00,75s,1.07
2023-06-22T03:39:00,75s,1.08
2023-06-22T03:40:00,75s,1.07
2023-06-22T03:41:00,75s,1.05
2023-06-22T03:42:00,75s,1.13
2023-06-22T03:43:00,75s,1.15
2023-06-22T03:44:00,75s,1.13
2023-06-22T03:45:00,75s,1.06
2023-06-22T03:46:00,75s,1.20
2023-06-22T03:47:00,75s,1.21
2023-06-22T03:48:00,75s,1.20
2023-06-22T03:49:00,75s,1.11
2023-06-22T03:50:00,75s,1.10
2023-06-22T03:51:00,75s,1.10
2023-06-22T03:52:00,75s,1.12
2023-06-22T03:53:00,75s,1.16
2023-06-22T03:54:00,75s,1.16
2023-06-22T03:55:00,75s,1.13
2023-06-22T03:56:00,75s,1.13
2023-06-22T03:57:00,75s,1.18
2023-06-22T03:58:00,75s,1.05
2023-06-22T03:59:00,75s,1.69
2023-06-22T04:00:00,75s,1.12
2023-06-22T04:01:00,75s,1.50
2023-06-22T04:02:00,75s,1.13
2023-06-22T04:03:00,75s,1.39
2023-06-22T04:04:00,75s,1.07
2023-06-22T04:05:00,75s,1.05
2023-06-22T04:06:00,75s,1.14
2023-06-22T04:07:00,75s,1.13
2023-06-22T04:08:00,75s,1.13
2023-06-22T04:09:00,75s,1.01
2023-06-22T04:10:00,75s,1.01
2023-06-22T04:11:00,75s,1.34
2023-06-22T04:12:00,75s,0.99
2023-06-22T04:13:00,75s,0.99
2023-06-22T04:14:00,75s,1.08
2023-06-22T04:15:00,75s,1.08
2023-06-22T04:16:00,75s,1.27
2023-06-22T04:17:00,75s,1.25
2023-06-22T04:18:00,75s,1.34
2023-06-22T04:19:00,75s,1.40
2023-06-22T04:20:00,75s,1.40
2023-06-22T04:21:00,75s,1.29
2023-06-22T04:22:00,75s,1.24
2023-06-22T04:23:00,75s,1.36
2023-06-22T04:24:00,75s,1.25
2023-06-22T04:25:00,75s,1.16
2023-06-22T04:26:00,75s,1.15
2023-06-22T04:27:00,75s,1.15
2023-06-22T04:28:00,75s,1.16
2023-06-22T04:29:00,75s,1.25
2023-06-22T04:30:00,75s,1.21
2023-06-22T04:31:00,75s,1.25
2023-06-22T04:32:00,75s,1.18
2023-06-22T04:33:00,75s,1.25
2023-06-22T04:34:00,75s,1.22
2023-06-22T04:35:00,75s,1.23
2023-06-22T04:36:00,75s,1.16
2023-06-22T04:37:00,75s,1.13
2023-06-22T04:38:00,75s,1.14
2023-06-22T04:39:00,75s,1.19
2023-06-22T04:40:00,75s,1.24
2023-06-22T04:41:00,75s,1.19
2023-06-22T04:42:00,75s,1.38
2023-06-22T04:43:00,75s,1.18
2023-06-22T04:44:00,75s,1.45
2023-06-22T04:45:00,75s,1.10
2023-06-22T04:46:00,75s,1.94
2023-06-22T04:47:00,75s,1.29
2023-06-22T04:48:00,75s,1.20
2023-06-22T04:49:00,75s,1.20
2023-06-22T04:50:00,75s,1.20
2023-06-22T04:51:00,75s,1.19
2023-06-22T04:52:00,75s,1.27
2023-06-22T04:53:00,75s,1.26
2023-06-22T04:54:00,75s,1.27
2023-06-22T04:55:00,75s,1.08
2023-06-22T04:56:00,75s,1.06
2023-06-22T04:57:00,75s,1.05
2023-06-22T04:58:00,75s,1.13
2023-06-22T04:59:00,75s,1.08
2023-06-22T05:00:00,75s,1.07
2023-06-22T05:01:00,75s,1.00
2023-06-22T05:02:00,75s,1.03
2023-06-22T05:03:00,75s,1.08
2023-06-22T05:04:00,75s,1.13
2023-06-22T05:05:00,75s,1.02
2023-06-22T05:06:00,75s,0.93
2023-06-22T05:07:00,75s,0.94
2023-06-22T05:08:00,75s,0.94
2023-06-22T05:09:00,75s,1.19
2023-06-22T05:10:00,75s,1.03
2023-06-22T05:11:00,75s,1.02
2023-06-22T05:12:00,75s,0.99
2023-06-22T05:13:00,75s,0.94
2023-06-22T05:14:00,75s,0.95
2023-06-22T05:15:00,75s,1.06
2023-06-22T05:16:00,75s,1.03
2023-06-22T05:17:00,75s,1.04
2023-06-22T05:18:00,75s,1.12
2023-06-22T05:19:00,75s,1.21
2023-06-22T05:20:00,75s,1.22
2023-06-22T05:21:00,75s,1.20
2023-06-22T05:22:00,75s,1.22
2023-06-22T05:23:00,75s,1.21
2023-06-22T05:24:00,75s,1.13
2023-06-22T05:25:00,75s,1.37
2023-06-22T05:26:00,75s,1.15
2023-06-22T05:27:00,75s,1.50
2023-06-22T05:28:00,75s,1.13
2023-06-22T05:29:00,75s,1.50
2023-06-22T05:30:00,75s,1.13
2023-06-22T05:31:00,75s,1.42
2023-06-22T05:32:00,75s,1.22
2023-06-22T05:33:00,75s,1.65
2023-06-22T05:34:00,75s,1.30
2023-06-22T05:35:00,75s,1.51
2023-06-22T05:36:00,75s,1.12
2023-06-22T05:37:00,75s,1.12
2023-06-22T05:38:00,75s,1.14
2023-06-22T05:39:00,75s,1.14
2023-06-22T05:40:00,75s,1.13
2023-06-22T05:41:00,75s,1.34
2023-06-22T05:42:00,75s,1.11
2023-06-22T05:43:00,75s,1.09
2023-06-22T05:44:00,75s,1.16
2023-06-22T05:45:00,75s,1.34
2023-06-22T05:46:00,75s,1.26
2023-06-22T05:47:00,75s,1.21
2023-06-22T05:48:00,75s,1.10
2023-06-22T05:49:00,75s,1.10
2023-06-22T05:50:00,75s,1.10
2023-06-22T05:51:00,75s,1.09
2023-06-22T05:52:00,75s,1.09
2023-06-22T05:53:00,75s,1.10
2023-06-22T05:54:00,75s,1.05
2023-06-22T05:55:00,75s,1.16
2023-06-22T05:56:00,75s,1.03
2023-06-22T05:57:00,75s,1.11
2023-06-22T05:58:00,75s,1.12
2023-06-22T05:59:00,75s,1.05
2023-06-22T06:00:00,75s,0.98
2023-06-22T06:01:00,75s,1.63
2023-06-22T06:02:00,75s,2.99
2023-06-22T06:03:00,75s,3.43
2023-06-22T06:04:00,75s,3.15
2023-06-22T06:05:00,75s,3.05
2023-06-22T06:06:00,75s,2.70
2023-06-22T06:07:00,75s,2.93
2023-06-22T06:08:00,75s,2.72
2023-06-22T06:09:00,75s,2.69
2023-06-22T06:10:00,75s,2.65
2023-06-22T06:11:00,75s,2.57
2023-06-22T06:12:00,75s,2.64
2023-06-22T06:13:00,75s,2.61
2023-06-22T06:14:00,75s,2.52
2023-06-22T06:15:00,75s,2.62
2023-06-22T06:16:00,75s,2.58
2023-06-22T06:17:00,75s,2.59
2023-06-22T06:18:00,75s,2.59
2023-06-22T06:19:00,75s,2.58
2023-06-22T06:20:00,75s,2.68
2023-06-22T06:21:00,75s,2.69
2023-06-22T06:22:00,75s,2.69
2023-06-22T06:23:00,75s,2.60
2023-06-22T06:24:00,75s,2.66
2023-06-22T06:25:00,75s,2.78
2023-06-22T06:26:00,75s,2.66
2023-06-22T06:27:00,75s,2.65
2023-06-22T06:28:00,75s,2.64
2023-06-22T06:29:00,75s,2.68
2023-06-22T06:30:00,75s,2.67
2023-06-22T06:31:00,75s,2.68
2023-06-22T06:32:00,75s,2.66
2023-06-22T06:33:00,75s,2.66
2023-06-22T06:34:00,75s,2.60
2023-06-22T06:35:00,75s,2.56
2023-06-22T06:36:00,75s,2.74
2023-06-22T06:37:00,75s,2.57
2023-06-22T06:38:00,75s,2.59
2023-06-22T06:39:00,75s,12.85
2023-06-22T06:40:00,75s,12.74
2023-06-22T06:41:00,75s,12.72
2023-06-22T06:42:00,75s,12.84
2023-06-22T06:43:00,75s,12.86
2023-06-22T06:44:00,75s,12.91
2023-06-22T06:45:00,75s,12.89
2023-06-22T06:46:00,75s,12.82
2023-06-22T06:47:00,75s,12.78
2023-06-22T06:48:00,75s,2.70
2023-06-22T06:49:00,75s,2.68
2023-06-22T06:50:00,75s,2.99
2023-06-22T06:51:00,75s,2.56
2023-06-22T06:52:00,75s,2.56
2023-06-22T06:53:00,75s,2.55
2023-06-22T06:54:00,75s,2.52
2023-06-22T06:55:00,75s,2.52
2023-06-22T06:56:00,75s,2.55
2023-06-22T06:57:00,75s,2.97
2023-06-22T06:58:00,75s,12.76
2023-06-22T06:59:00,75s,12.66
2023-06-22T07:00:00,75s,12.69
2023-06-22T07:01:00,75s,12.66
2023-06-22T07:02:00,75s,12.65
2023-06-22T07:03:00,75s,12.68
2023-06-22T07:04:00,75s,12.70
2023-06-22T07:05:00,75s,12.66
2023-06-22T07:06:00,75s,2.52
2023-06-22T07:07:00,75s,2.54
2023-06-22T07:08:00,75s,2.69
2023-06-22T07:09:00,75s,2.88
2023-06-22T07:10:00,75s,2.68
2023-06-22T07:11:00,75s,2.53
2023-06-22T07:12:00,75s,2.55
2023-06-22T07:13:00,75s,2.55
2023-06-22T07:14:00,75s,2.55
2023-06-22T07:15:00,75s,2.61
2023-06-22T07:16:00,75s,12.87
2023-06-22T07:17:00,75s,12.77
2023-06-22T07:18:00,75s,12.82
2023-06-22T07:19:00,75s,12.82
2023-06-22T07:20:00,75s,13.03
2023-06-22T07:21:00,75s,12.91
2023-06-22T07:22:00,75s,13.11
2023-06-22T07:23:00,75s,12.91
2023-06-22T07:24:00,75s,12.83
2023-06-22T07:25:00,75s,12.85
2023-06-22T07:26:00,75s,12.77
2023-06-22T07:27:00,75s,12.72
2023-06-22T07:28:00,75s,12.78
2023-06-22T07:29:00,75s,12.77
2023-06-22T07:30:00,75s,12.84
2023-06-22T07:31:00,75s,12.94
2023-06-22T07:32:00,75s,12.94
2023-06-22T07:33:00,75s,12.94
2023-06-22T07:34:00,75s,12.85
2023-06-22T07:35:00,75s,12.86
2023-06-22T07:36:00,75s,2.74
2023-06-22T07:37:00,75s,2.76
2023-06-22T07:38:00,75s,2.76
2023-06-22T07:39:00,75s,2.69
2023-06-22T07:40:00,75s,2.68
2023-06-22T07:41:00,75s,2.69
2023-06-22T07:42:00,75s,2.69
2023-06-22T07:43:00,75s,2.77
2023-06-22T07:44:00,75s,2.78
2023-06-22T07:45:00,75s,13.23
2023-06-22T07:46:00,75s,13.16
2023-06-22T07:47:00,75s,22.03
2023-06-22T07:48:00,75s,22.41
2023-06-22T07:49:00,75s,21.94
2023-06-22T07:50:00,75s,21.86
2023-06-22T07:51:00,75s,21.65
2023-06-22T07:52:00,75s,13.12
2023-06-22T07:53:00,75s,13.16
2023-06-22T07:54:00,75s,13.06
2023-06-22T07:55:00,75s,13.20
2023-06-22T07:56:00,75s,13.14
2023-06-22T07:57:00,75s,13.00
2023-06-22T07:58:00,75s,13.01
2023-06-22T07:59:00,75s,13.05
2023-06-22T08:00:00,75s,12.97
2023-06-22T08:01:00,75s,13.32
2023-06-22T08:02:00,75s,13.48
2023-06-22T08:03:00,75s,13.36
2023-06-22T08:04:00,75s,13.44
2023-06-22T08:05:00,75s,3.11
2023-06-22T08:06:00,75s,3.21
2023-06-22T08:07:00,75s,3.24
2023-06-22T08:08:00,75s,3.20
2023-06-22T08:09:00,75s,3.17
2023-06-22T08:10:00,75s,3.29
2023-06-22T08:11:00,75s,3.28
2023-06-22T08:12:00,75s,13.83
2023-06-22T08:13:00,75s,13.90
2023-06-22T08:14:00,75s,13.67
2023-06-22T08:15:00,75s,13.78
2023-06-22T08:16:00,75s,13.80
2023-06-22T08:17:00,75s,13.94
2023-06-22T08:18:00,75s,14.01
2023-06-22T08:19:00,75s,14.09
2023-06-22T08:20:00,75s,14.09
2023-06-22T08:21:00,75s,14.13
2023-06-22T08:22:00,75s,22.12
2023-06-22T08:23:00,75s,23.98
2023-06-22T08:24:00,75s,25.31
2023-06-22T08:25:00,75s,25.58
2023-06-22T08:26:00,75s,25.81
2023-06-22T08:27:00,75s,25.84
2023-06-22T08:28:00,75s,25.83
2023-06-22T08:29:00,75s,25.82
2023-06-22T08:30:00,75s,25.69
2023-06-22T08:31:00,75s,25.50
2023-06-22T08:32:00,75s,25.55
2023-06-22T08:33:00,75s,25.52
2023-06-22T08:34:00,75s,25.55
2023-06-22T08:35:00,75s,25.77
2023-06-22T08:36:00,75s,26.11
2023-06-22T08:37:00,75s,25.65
2023-06-22T08:38:00,75s,25.71
2023-06-22T08:39:00,75s,25.68
2023-06-22T08:40:00,75s,25.53
2023-06-22T08:41:00,75s,25.36
2023-06-22T08:42:00,75s,26.25
2023-06-22T08:43:00,75s,26.52
2023-06-22T08:44:00,75s,26.29
2023-06-22T08:45:00,75s,26.23
2023-06-22T08:46:00,75s,25.92
2023-06-22T08:47:00,75s,26.05
2023-06-22T08:48:00,75s,26.12
2023-06-22T08:49:00,75s,26.16
2023-06-22T08:50:00,75s,26.33
2023-06-22T08:51:00,75s,25.74
2023-06-22T08:52:00,75s,26.11
2023-06-22T08:53:00,75s,25.93
2023-06-22T08:54:00,75s,25.98
2023-06-22T08:55:00,75s,25.60
2023-06-22T08:56:00,75s,25.78
2023-06-22T08:57:00,75s,25.80
2023-06-22T08:58:00,75s,22.38
2023-06-22T08:59:00,75s,25.69
2023-06-22T09:00:00,75s,25.19
2023-06-22T09:01:00,75s,23.26
2023-06-22T09:02:00,75s,20.14
2023-06-22T09:03:00,75s,19.83
2023-06-22T09:04:00,75s,19.82
2023-06-22T09:05:00,75s,19.95
2023-06-22T09:06:00,75s,20.09
2023-06-22T09:07:00,75s,20.18
2023-06-22T09:08:00,75s,20.07
2023-06-22T09:09:00,75s,20.07
2023-06-22T09:10:00,75s,20.19
2023-06-22T09:11:00,75s,20.20
2023-06-22T09:12:00,75s,20.22
2023-06-22T09:13:00,75s,20.22
2023-06-22T09:14:00,75s,20.51
2023-06-22T09:15:00,75s,20.44
2023-06-22T09:16:00,75s,20.35
2023-06-22T09:17:00,75s,20.40
2023-06-22T09:18:00,75s,20.44
2023-06-22T09:19:00,75s,20.76
2023-06-22T09:20:00,75s,21.16
2023-06-22T09:21:00,75s,20.89
2023-06-22T09:22:00,75s,22.39
2023-06-22T09:23:00,75s,23.89
2023-06-22T09:24:00,75s,25.51
2023-06-22T09:25:00,75s,26.87
2023-06-22T09:26:00,75s,27.14
2023-06-22T09:27:00,75s,27.08
2023-06-22T09:28:00,75s,27.24
2023-06-22T09:29:00,75s,27.31
2023-06-22T09:30:00,75s,27.24
2023-06-22T09:31:00,75s,27.26
2023-06-22T09:32:00,75s,27.38
2023-06-22T09:33:00,75s,27.30
2023-06-22T09:34:00,75s,27.28
2023-06-22T09:35:00,75s,27.43
2023-06-22T09:36:00,75s,27.45
2023-06-22T09:37:00,75s,27.52
2023-06-22T09:38:00,75s,27.31
2023-06-22T09:39:00,75s,27.29
2023-06-22T09:40:00,75s,27.52
2023-06-22T09:41:00,75s,27.39
2023-06-22T09:42:00,75s,27.23
2023-06-22T09:43:00,75s,27.11
2023-06-22T09:44:00,75s,27.29
2023-06-22T09:45:00,75s,27.25
2023-06-22T09:46:00,75s,27.67
2023-06-22T09:47:00,75s,27.24
2023-06-22T09:48:00,75s,27.42
2023-06-22T09:49:00,75s,27.30
2023-06-22T09:50:00,75s,27.07
2023-06-22T09:51:00,75s,26.99
2023-06-22T09:52:00,75s,27.16
2023-06-22T09:53:00,75s,27.09
2023-06-22T09:54:00,75s,27.18
2023-06-22T09:55:00,75s,27.19
2023-06-22T09:56:00,75s,26.88
2023-06-22T09:57:00,75s,26.43
2023-06-22T09:58:00,75s,26.80
2023-06-22T09:59:00,75s,26.66
2023-06-22T10:00:00,75s,26.56
2023-06-22T10:01:00,75s,26.66
2023-06-22T10:02:00,75s,24.55
2023-06-22T10:03:00,75s,26.44
2023-06-22T10:04:00,75s,24.12
2023-06-22T10:05:00,75s,21.44
2023-06-22T10:06:00,75s,21.19
2023-06-22T10:07:00,75s,21.23
2023-06-22T10:08:00,75s,21.49
2023-06-22T10:09:00,75s,21.80
2023-06-22T10:10:00,75s,21.69
2023-06-22T10:11:00,75s,21.89
2023-06-22T10:12:00,75s,21.14
2023-06-22T10:13:00,75s,24.19
2023-06-22T10:14:00,75s,21.35
2023-06-22T10:15:00,75s,21.82
2023-06-22T10:16:00,75s,23.46
2023-06-22T10:17:00,75s,27.26
2023-06-22T10:18:00,75s,27.38
2023-06-22T10:19:00,75s,27.30
2023-06-22T10:20:00,75s,27.16
2023-06-22T10:21:00,75s,27.47
2023-06-22T10:22:00,75s,27.04
2023-06-22T10:23:00,75s,27.04
2023-06-22T10:24:00,75s,26.99
2023-06-22T10:25:00,75s,27.07
2023-06-22T10:26:00,75s,27.04
2023-06-22T10:27:00,75s,27.38
2023-06-22T10:28:00,75s,26.88
2023-06-22T10:29:00,75s,27.30
2023-06-22T10:30:00,75s,27.10
2023-06-22T10:31:00,75s,27.05
2023-06-22T10:32:00,75s,26.89
2023-06-22T10:33:00,75s,26.94
2023-06-22T10:34:00,75s,26.82
2023-06-22T10:35:00,75s,26.64
2023-06-22T10:36:00,75s,26.76
2023-06-22T10:37:00,75s,26.88
2023-06-22T10:38:00,75s,26.75
2023-06-22T10:39:00,75s,26.69
2023-06-22T10:40:00,75s,27.04
2023-06-22T10:41:00,75s,26.91
2023-06-22T10:42:00,75s,27.16
2023-06-22T10:43:00,75s,27.39
2023-06-22T10:44:00,75s,22.55
2023-06-22T10:45:00,75s,21.26
2023-06-22T10:46:00,75s,21.41
2023-06-22T10:47:00,75s,27.96
2023-06-22T10:48:00,75s,24.20
2023-06-22T10:49:00,75s,26.12
2023-06-22T10:50:00,75s,27.83
2023-06-22T10:51:00,75s,28.52
2023-06-22T10:52:00,75s,28.27
2023-06-22T10:53:00,75s,28.21
2023-06-22T10:54:00,75s,28.32
2023-06-22T10:55:00,75s,28.31
2023-06-22T10:56:00,75s,28.39
2023-06-22T10:57:00,75s,28.47
2023-06-22T10:58:00,75s,28.01
2023-06-22T10:59:00,75s,28.17
2023-06-22T11:00:00,75s,28.04
2023-06-22T11:01:00,75s,28.28
2023-06-22T11:02:00,75s,28.63
2023-06-22T11:03:00,75s,28.73
2023-06-22T11:04:00,75s,28.38
2023-06-22T11:05:00,75s,28.21
2023-06-22T11:06:00,75s,28.33
2023-06-22T11:07:00,75s,28.49
2023-06-22T11:08:00,75s,28.60
2023-06-22T11:09:00,75s,28.67
2023-06-22T11:10:00,75s,28.27
2023-06-22T11:11:00,75s,28.12
2023-06-22T11:12:00,75s,28.43
2023-06-22T11:13:00,75s,28.21
2023-06-22T11:14:00,75s,28.16
2023-06-22T11:15:00,75s,28.12
2023-06-22T11:16:00,75s,28.25
2023-06-22T11:17:00,75s,28.31
2023-06-22T11:18:00,75s,27.93
2023-06-22T11:19:00,75s,28.13
2023-06-22T11:20:00,75s,28.38
2023-06-22T11:21:00,75s,28.04
2023-06-22T11:22:00,75s,27.92
2023-06-22T11:23:00,75s,28.07
2023-06-22T11:24:00,75s,27.97
2023-06-22T11:25:00,75s,27.86
2023-06-22T11:26:00,75s,27.81
2023-06-22T11:27:00,75s,27.90
2023-06-22T11:28:00,75s,28.28
2023-06-22T11:29:00,75s,28.68
2023-06-22T11:30:00,75s,28.38
2023-06-22T11:31:00,75s,28.43
2023-06-22T11:32:00,75s,28.61
2023-06-22T11:33:00,75s,28.57
2023-06-22T11:34:00,75s,28.46
2023-06-22T11:35:00,75s,28.88
2023-06-22T11:36:00,75s,28.74
2023-06-22T11:37:00,75s,28.53
2023-06-22T11:38:00,75s,28.64
2023-06-22T11:39:00,75s,28.87
2023-06-22T11:40:00,75s,28.44
2023-06-22T11:41:00,75s,28.89
2023-06-22T11:42:00,75s,28.60
2023-06-22T11:43:00,75s,28.67
2023-06-22T11:44:00,75s,28.91
2023-06-22T11:45:00,75s,28.81
2023-06-22T11:46:00,75s,28.52
2023-06-22T11:47:00,75s,28.34
2023-06-22T11:48:00,75s,28.79
2023-06-22T11:49:00,75s,25.45
2023-06-22T11:50:00,75s,24.23
2023-06-22T11:51:00,75s,22.55
2023-06-22T11:52:00,75s,24.29
2023-06-22T11:53:00,75s,26.08
2023-06-22T11:54:00,75s,28.82
2023-06-22T11:55:00,75s,28.75
2023-06-22T11:56:00,75s,28.68
2023-06-22T11:57:00,75s,29.03
2023-06-22T11:58:00,75s,28.99
2023-06-22T11:59:00,75s,28.91
2023-06-22T12:00:00,75s,28.84
2023-06-22T12:01:00,75s,28.84
2023-06-22T12:02:00,75s,28.65
2023-06-22T12:03:00,75s,29.11
2023-06-22T12:04:00,75s,28.59
2023-06-22T12:05:00,75s,29.04
2023-06-22T12:06:00,75s,29.14
2023-06-22T12:07:00,75s,29.16
2023-06-22T12:08:00,75s,29.26
2023-06-22T12:09:00,75s,29.12
2023-06-22T12:10:00,75s,29.36
2023-06-22T12:11:00,75s,29.28
2023-06-22T12:12:00,75s,29.11
2023-06-22T12:13:00,75s,29.10
2023-06-22T12:14:00,75s,29.29
2023-06-22T12:15:00,75s,29.46
2023-06-22T12:16:00,75s,29.43
2023-06-22T12:17:00,75s,29.47
2023-06-22T12:18:00,75s,29.39
2023-06-22T12:19:00,75s,29.42
2023-06-22T12:20:00,75s,29.21
2023-06-22T12:21:00,75s,29.17
2023-06-22T12:22:00,75s,28.84
2023-06-22T12:23:00,75s,28.67
2023-06-22T12:24:00,75s,37.97
2023-06-22T12:25:00,75s,37.79
2023-06-22T12:26:00,75s,37.75
2023-06-22T12:27:00,75s,37.93
2023-06-22T12:28:00,75s,37.61
2023-06-22T12:29:00,75s,29.35
2023-06-22T12:30:00,75s,29.15
2023-06-22T12:31:00,75s,29.10
2023-06-22T12:32:00,75s,28.87
2023-06-22T12:33:00,75s,28.83
2023-06-22T12:34:00,75s,29.48
2023-06-22T12:35:00,75s,30.26
2023-06-22T12:36:00,75s,29.17
2023-06-22T12:37:00,75s,29.09
2023-06-22T12:38:00,75s,29.13
2023-06-22T12:39:00,75s,28.91
2023-06-22T12:40:00,75s,28.97
2023-06-22T12:41:00,75s,28.79
2023-06-22T12:42:00,75s,29.09
2023-06-22T12:43:00,75s,28.94
2023-06-22T12:44:00,75s,28.96
2023-06-22T12:45:00,75s,28.95
2023-06-22T12:46:00,75s,28.85
2023-06-22T12:47:00,75s,28.79
2023-06-22T12:48:00,75s,28.88
2023-06-22T12:49:00,75s,28.71
2023-06-22T12:50:00,75s,28.74
2023-06-22T12:51:00,75s,28.79
2023-06-22T12:52:00,75s,28.84
2023-06-22T12:53:00,75s,29.13
2023-06-22T12:54:00,75s,28.74
2023-06-22T12:55:00,75s,28.57
2023-06-22T12:56:00,75s,28.82
2023-06-22T12:57:00,75s,29.01
2023-06-22T12:58:00,75s,28.95
2023-06-22T12:59:00,75s,28.93
2023-06-22T13:00:00,75s,28.81
2023-06-22T13:01:00,75s,29.05
2023-06-22T13:02:00,75s,28.82
2023-06-22T13:03:00,75s,29.14
2023-06-22T13:04:00,75s,28.73
2023-06-22T13:05:00,75s,29.57
2023-06-22T13:06:00,75s,28.94
2023-06-22T13:07:00,75s,28.41
2023-06-22T13:08:00,75s,28.26
2023-06-22T13:09:00,75s,26.77
2023-06-22T13:10:00,75s,28.39
2023-06-22T13:11:00,75s,28.45
2023-06-22T13:12:00,75s,28.66
2023-06-22T13:13:00,75s,28.36
2023-06-22T13:14:00,75s,25.54
2023-06-22T13:15:00,75s,22.13
2023-06-22T13:16:00,75s,21.86
2023-06-22T13:17:00,75s,23.07
2023-06-22T13:18:00,75s,25.38
2023-06-22T13:19:00,75s,27.39
2023-06-22T13:20:00,75s,22.30
2023-06-22T13:21:00,75s,24.20
2023-06-22T13:22:00,75s,26.26
2023-06-22T13:23:00,75s,28.57
2023-06-22T13:24:00,75s,22.64
2023-06-22T13:25:00,75s,28.38
2023-06-22T13:26:00,75s,22.41
2023-06-22T13:27:00,75s,21.77
2023-06-22T13:28:00,75s,23.59
2023-06-22T13:29:00,75s,25.60
2023-06-22T13:30:00,75s,28.90
2023-06-22T13:31:00,75s,28.96
2023-06-22T13:32:00,75s,28.99